Total_Precipitation_Accumulation
0.03 0.08 0.13 0.18 0.29 0.11 0.00 0.00 0.00 0.00 0.00 0.00 0.00 0.00 0.00 0.00 0.04 0.23 0.06 0.00 0.00 0.00 0.00 0.04 0.11 0.12 0.11 0.15 0.19 0.26 0.29 0.38 0.33 0.26 0.18 0.14 0.12 0.13 0.10 0.08 0.09 0.09 0.08 0.08 0.11 0.21 0.22 0.21 0.30
0.04 0.13 0.18 0.32 0.25 0.02 0.00 0.00 0.00 0.00 0.00 0.00 0.00 0.00 0.00 0.00 0.00 0.01 0.01 0.01 0.00 0.00 0.00 0.04 0.11 0.10 0.11 0.14 0.23 0.33 0.35 0.46 0.45 0.27 0.14 0.08 0.11 0.18 0.16 0.15 0.25 0.13 0.05 0.05 0.09 0.18 0.23 0.22 0.26
0.03 0.09 0.20 0.30 0.09 0.00 0.00 0.00 0.00 0.00 0.00 0.00 0.00 0.00 0.00 0.00 0.00 0.02 0.01 0.01 0.00 0.00 0.01 0.08 0.16 0.12 0.12 0.14 0.26 0.35 0.40 0.47 0.42 0.20 0.07 0.04 0.12 0.21 0.24 0.27 0.29 0.10 0.04 0.04 0.06 0.14 0.20 0.19 0.18
0.03 0.09 0.21 0.16 0.02 0.00 0.00 0.00 0.00 0.00 0.00 0.00 0.00 0.00 0.00 0.00 0.00 0.01 0.01 0.00 0.00 0.00 0.02 0.07 0.16 0.15 0.14 0.14 0.27 0.36 0.43 0.48 0.40 0.18 0.07 0.07 0.14 0.18 0.18 0.27 0.16 0.07 0.04 0.03 0.04 0.09 0.12 0.12 0.14
0.04 0.13 0.27 0.13 0.02 0.00 0.00 0.00 0.00 0.00 0.00 0.00 0.00 0.00 0.00 0.01 0.00 0.01 0.00 0.00 0.00 0.01 0.02 0.05 0.10 0.13 0.15 0.16 0.32 0.42 0.43 0.45 0.36 0.17 0.09 0.08 0.09 0.11 0.14 0.20 0.07 0.04 0.02 0.02 0.03 0.07 0.08 0.10 0.12
0.06 0.20 0.37 0.17 0.03 0.00 0.00 0.00 0.00 0.00 0.00 0.00 0.00 0.00 0.00 0.01 0.01 0.01 0.00 0.00 0.00 0.00 0.01 0.03 0.06 0.12 0.16 0.22 0.34 0.40 0.41 0.39 0.33 0.18 0.10 0.09 0.09 0.08 0.14 0.15 0.05 0.02 0.01 0.01 0.02 0.06 0.09 0.10 0.10
0.06 0.24 0.38 0.14 0.04 0.01 0.01 0.00 0.00 0.00 0.00 0.00 0.00 0.00 0.00 0.01 0.01 0.01 0.00 0.01 0.01 0.01 0.01 0.03 0.05 0.08 0.18 0.29 0.36 0.40 0.40 0.39 0.34 0.21 0.12 0.08 0.08 0.07 0.10 0.08 0.02 0.01 0.00 0.00 0.01 0.04 0.05 0.05 0.07
0.02 0.11 0.26 0.16 0.07 0.05 0.01 0.01 0.01 0.01 0.01 0.01 0.01 0.01 0.01 0.02 0.02 0.02 0.02 0.03 0.02 0.01 0.00 0.01 0.04 0.08 0.12 0.16 0.25 0.35 0.39 0.38 0.36 0.25 0.16 0.11 0.08 0.05 0.05 0.02 0.00 0.00 0.00 0.00 0.01 0.02 0.02 0.02 0.05
0.05 0.11 0.24 0.23 0.18 0.11 0.04 0.01 0.03 0.03 0.04 0.04 0.02 0.01 0.01 0.02 0.03 0.03 0.04 0.06 0.04 0.02 0.01 0.01 0.01 0.02 0.06 0.09 0.12 0.25 0.35 0.38 0.32 0.25 0.16 0.12 0.12 0.06 0.04 0.02 0.01 0.00 0.00 0.01 0.02 0.03 0.02 0.01 0.02
0.10 0.15 0.26 0.26 0.24 0.17 0.07 0.05 0.05 0.04 0.04 0.04 0.03 0.03 0.04 0.05 0.06 0.08 0.08 0.08 0.07 0.05 0.02 0.02 0.02 0.01 0.03 0.06 0.18 0.32 0.29 0.24 0.20 0.25 0.16 0.14 0.13 0.10 0.05 0.04 0.01 0.01 0.01 0.01 0.02 0.03 0.01 0.00 0.00
0.10 0.14 0.20 0.28 0.25 0.14 0.08 0.08 0.09 0.07 0.07 0.06 0.06 0.07 0.09 0.11 0.11 0.14 0.16 0.18 0.15 0.13 0.09 0.06 0.04 0.03 0.03 0.10 0.22 0.35 0.46 0.35 0.30 0.22 0.14 0.16 0.09 0.04 0.03 0.04 0.04 0.02 0.02 0.01 0.00 0.00 0.00 0.00 0.00
0.07 0.09 0.11 0.15 0.16 0.10 0.07 0.07 0.08 0.08 0.09 0.09 0.09 0.11 0.14 0.18 0.21 0.23 0.25 0.28 0.28 0.24 0.21 0.15 0.08 0.07 0.04 0.05 0.08 0.16 0.21 0.27 0.25 0.16 0.11 0.11 0.07 0.04 0.02 0.03 0.03 0.02 0.01 0.00 0.00 0.00 0.00 0.00 0.00
0.10 0.07 0.06 0.08 0.10 0.09 0.07 0.08 0.09 0.10 0.12 0.10 0.11 0.15 0.22 0.27 0.29 0.31 0.32 0.34 0.36 0.40 0.41 0.33 0.23 0.19 0.15 0.12 0.10 0.08 0.10 0.17 0.22 0.21 0.13 0.10 0.08 0.06 0.04 0.03 0.02 0.01 0.00 0.00 0.00 0.00 0.00 0.00 0.01
0.06 0.06 0.08 0.11 0.11 0.10 0.08 0.07 0.10 0.15 0.16 0.15 0.16 0.21 0.27 0.33 0.36 0.42 0.43 0.44 0.42 0.44 0.54 0.51 0.41 0.35 0.33 0.26 0.18 0.12 0.12 0.15 0.22 0.20 0.12 0.12 0.10 0.08 0.06 0.05 0.04 0.02 0.01 0.00 0.00 0.00 0.00 0.00 0.00
0.04 0.06 0.07 0.07 0.07 0.08 0.08 0.08 0.13 0.17 0.19 0.21 0.22 0.23 0.29 0.34 0.38 0.46 0.48 0.45 0.44 0.43 0.47 0.53 0.49 0.49 0.49 0.46 0.42 0.31 0.28 0.26 0.29 0.27 0.18 0.16 0.13 0.10 0.10 0.09 0.06 0.04 0.02 0.00 0.00 0.00 0.00 0.00 0.00
0.03 0.03 0.06 0.08 0.07 0.11 0.10 0.10 0.17 0.22 0.20 0.21 0.26 0.28 0.30 0.32 0.35 0.43 0.46 0.46 0.46 0.46 0.49 0.53 0.54 0.58 0.62 0.64 0.63 0.56 0.57 0.51 0.46 0.48 0.35 0.25 0.20 0.18 0.16 0.14 0.13 0.09 0.04 0.02 0.02 0.02 0.01 0.00 0.01
0.06 0.05 0.06 0.10 0.10 0.13 0.15 0.17 0.22 0.26 0.22 0.20 0.22 0.24 0.24 0.24 0.26 0.32 0.38 0.40 0.41 0.42 0.43 0.47 0.55 0.59 0.61 0.67 0.76 0.83 0.85 0.80 0.72 0.72 0.63 0.49 0.40 0.39 0.39 0.32 0.27 0.17 0.13 0.09 0.06 0.04 0.02 0.02 0.03
0.29 0.15 0.10 0.10 0.11 0.12 0.16 0.20 0.23 0.24 0.21 0.17 0.17 0.18 0.19 0.18 0.19 0.22 0.25 0.28 0.31 0.33 0.35 0.40 0.47 0.63 0.77 0.84 0.88 0.99 0.98 1.01 1.06 1.10 0.96 0.78 0.75 0.81 0.81 0.76 0.61 0.45 0.36 0.28 0.18 0.15 0.13 0.08 0.06
0.22 0.17 0.14 0.12 0.14 0.13 0.13 0.15 0.16 0.16 0.15 0.14 0.13 0.11 0.13 0.12 0.11 0.12 0.14 0.18 0.19 0.21 0.27 0.32 0.37 0.52 0.66 0.74 0.86 1.04 1.18 1.31 1.43 1.55 1.42 1.23 1.13 1.23 1.28 1.15 1.04 0.89 0.67 0.57 0.49 0.43 0.45 0.28 0.10
0.16 0.16 0.15 0.10 0.10 0.09 0.10 0.11 0.12 0.11 0.10 0.10 0.10 0.10 0.09 0.08 0.07 0.06 0.06 0.09 0.10 0.11 0.15 0.22 0.28 0.38 0.50 0.63 0.84 1.07 1.33 1.39 1.45 1.60 1.63 1.52 1.40 1.48 1.47 1.52 1.47 1.33 1.16 1.01 0.82 0.75 0.82 0.61 0.30
0.11 0.15 0.15 0.12 0.08 0.06 0.06 0.07 0.08 0.09 0.09 0.07 0.07 0.08 0.09 0.07 0.06 0.04 0.04 0.05 0.06 0.07 0.08 0.13 0.23 0.38 0.58 0.79 1.07 1.34 1.57 1.62 1.64 1.57 1.63 1.68 1.72 1.74 1.73 1.77 1.74 1.60 1.36 1.24 1.20 1.13 1.30 1.06 0.67
0.14 0.09 0.08 0.09 0.09 0.08 0.08 0.12 0.09 0.11 0.13 0.12 0.11 0.12 0.14 0.12 0.08 0.06 0.06 0.06 0.07 0.09 0.12 0.18 0.32 0.52 0.78 1.11 1.39 1.61 1.84 1.92 1.75 1.72 1.74 1.71 1.66 1.70 1.77 1.75 1.70 1.61 1.46 1.44 1.40 1.28 1.44 1.45 1.09
0.06 0.05 0.06 0.07 0.08 0.06 0.05 0.08 0.10 0.14 0.21 0.21 0.19 0.19 0.20 0.18 0.14 0.12 0.12 0.12 0.15 0.20 0.25 0.38 0.60 0.89 1.16 1.36 1.52 1.71 1.83 1.82 1.79 1.75 1.72 1.61 1.58 1.54 1.54 1.50 1.52 1.52 1.50 1.50 1.55 1.49 1.60 1.55 1.42
0.02 0.05 0.07 0.08 0.10 0.07 0.05 0.10 0.17 0.21 0.23 0.23 0.21 0.20 0.18 0.17 0.18 0.20 0.21 0.25 0.31 0.33 0.44 0.60 0.77 1.03 1.17 1.27 1.39 1.56 1.68 1.72 1.74 1.71 1.69 1.66 1.59 1.47 1.37 1.35 1.36 1.44 1.52 1.51 1.51 1.51 1.61 1.61 1.57
0.02 0.06 0.12 0.13 0.16 0.15 0.13 0.23 0.34 0.31 0.26 0.22 0.21 0.20 0.19 0.22 0.26 0.27 0.35 0.47 0.54 0.57 0.62 0.73 0.80 0.94 1.03 1.05 1.15 1.29 1.34 1.38 1.41 1.39 1.33 1.24 1.19 1.15 1.17 1.23 1.28 1.36 1.42 1.43 1.44 1.46 1.45 1.47 1.59
0.01 0.05 0.17 0.21 0.22 0.23 0.24 0.45 0.50 0.37 0.30 0.27 0.24 0.21 0.23 0.32 0.41 0.53 0.64 0.71 0.78 0.77 0.71 0.72 0.81 0.84 0.81 0.81 0.82 0.92 0.98 1.00 1.01 0.97 0.95 0.95 0.97 0.97 0.93 0.94 1.01 1.16 1.33 1.37 1.33 1.30 1.26 1.24 1.34
0.02 0.06 0.11 0.22 0.20 0.22 0.32 0.60 0.61 0.38 0.31 0.28 0.25 0.25 0.32 0.46 0.65 0.86 1.03 1.13 1.20 1.10 0.88 0.74 0.74 0.72 0.67 0.68 0.66 0.69 0.70 0.69 0.69 0.68 0.70 0.75 0.75 0.73 0.68 0.68 0.73 0.81 0.99 1.16 1.23 1.12 1.04 0.97 1.03
0.05 0.10 0.19 0.35 0.40 0.36 0.43 0.66 0.68 0.51 0.41 0.35 0.36 0.46 0.62 0.81 1.08 1.32 1.57 1.68 1.64 1.44 1.15 0.87 0.71 0.66 0.59 0.58 0.56 0.56 0.55 0.52 0.50 0.48 0.49 0.49 0.50 0.52 0.51 0.47 0.50 0.59 0.70 0.86 1.01 1.04 1.01 0.92 0.88
0.11 0.19 0.27 0.41 0.48 0.57 0.68 0.84 0.74 0.69 0.63 0.61 0.68 0.86 1.07 1.32 1.50 1.65 1.80 1.84 1.57 1.38 1.12 0.87 0.72 0.70 0.65 0.63 0.61 0.58 0.53 0.47 0.44 0.43 0.41 0.38 0.38 0.38 0.39 0.45 0.47 0.54 0.63 0.78 0.97 1.05 1.02 0.93 0.91
0.24 0.38 0.52 0.74 0.71 0.68 0.85 0.96 0.76 0.71 0.79 0.83 0.94 1.00 1.09 1.24 1.26 1.34 1.40 1.35 1.30 1.25 1.07 0.91 0.81 0.78 0.77 0.75 0.72 0.64 0.55 0.50 0.50 0.49 0.42 0.38 0.32 0.30 0.36 0.40 0.44 0.48 0.49 0.59 0.75 0.89 0.95 0.92 0.84